{"data":{"norad_id":41238,"epoch":"2026-05-25T03:59:15.859392Z","epoch_age_seconds":57324,"freshness":"FRESH","line1":"1 41238U 16001A   26145.16615578  .00000105  00000+0  00000+0 0  9997","line2":"2 41238   0.0195 212.3520 0002219 177.1228 324.5724  1.00273478 38002","mean_motion":1.00273478,"eccentricity":0.0002219,"inclination_deg":0.0195,"raan_deg":212.352,"arg_perigee_deg":177.1228,"mean_anomaly_deg":324.5724,"bstar":0,"rev_number":3800,"period_min":1436.0726572185,"perigee_km":35776.764109803,"apogee_km":35795.476607219,"semimajor_km":42164.257358511,"source":"CELESTRAK","updated_at":"2026-05-25T13:38:13.999114Z"}}